Regional Weather Roundup
Issued by NWS

Home | Current Version | Previous Version | Graphics & Text | Print | Product List | Glossary On
Versions: 1 2 3 4 5 6 7 8 9 10 11 12 13 14 15 16 17 18 19 20 21 22 23 24 25 26 27 28 29 30 31 32 33 34 35 36 37 38 39 40 41 42 43 44 45 46 47 48 49 50
000
ASUS45 KBOI 291410
RWRID

IDAHO REGIONAL WEATHER ROUNDUP
NATIONAL WEATHER SERVICE BOISE ID
800 AM MDT FRI MAY 29 2015

NOTE: "FAIR" INDICATES FEW OR NO CLOUDS BELOW 12000 FEET
WITH NO SIGNIFICANT WEATHER AND/OR OBSTRUCTIONS TO VISIBILITY

IDZ012-014-291500-
SOUTHWEST IDAHO


CITY           SKY/WX    TMP DP  RH WIND       PRES   REMARKS
BOISE          MOSUNNY   62  47  57 S10       30.11R
CALDWELL       MOSUNNY   63  43  48 S9        30.11R
MOUNTAIN HOME  SUNNY     60  47  63 SE14      30.13R
$$

IDZ016-017-291500-
SOUTHCENTRAL IDAHO


CITY           SKY/WX    TMP DP  RH WIND       PRES   REMARKS
BURLEY         SUNNY     56  46  69 NE13      30.18S
JEROME         SUNNY     57  47  69 NE17      30.18R
TWIN FALLS     SUNNY     58  44  60 E5        30.16R
$$

IDZ019>023-291500-
SOUTHEAST IDAHO


CITY           SKY/WX    TMP DP  RH WIND       PRES   REMARKS
IDAHO FALLS    SUNNY     49  43  80 NE6       30.24S
POCATELLO      SUNNY     49  46  90 CALM      30.23R
REXBURG        SUNNY     45  41  86 CALM      30.25R
$$

IDZ006-010-011-018-031-032-291500-
CENTRAL IDAHO MOUNTAINS


CITY           SKY/WX    TMP DP  RH WIND       PRES   REMARKS
MCCALL         MOSUNNY   47  41  80 CALM      30.19R
HAILEY         MOSUNNY   48  43  81 NW12      30.26R
STANLEY          N/A     39  34  82 CALM      30.29R
SALMON         PTSUNNY   46  45  93 CALM      30.23S
CHALLIS        SUNNY     47  41  80 CALM      30.26R
$$

IDZ002-004-006-007-026-291500-
NORTHERN IDAHO


CITY           SKY/WX    TMP DP  RH WIND       PRES   REMARKS
LEWISTON       MOSUNNY   62  51  67 E7        30.04R
LOWELL           N/A     50  47  89 N7        30.13S
COEUR D`ALENE  MOSUNNY   57  52  82 NE12      30.09S
MULLAN PASS    CLOUDY    42  42 100 SE10G16   30.20R
$$



USA.gov is the U.S. government's official web portal to all federal, state and local government web resources and services.